Lahr, Germany

12:38 PM CET on November 12, 2019 (GMT +0100)
Lahr

Weather History for EDTL - September, 2019

Change the Weather History Date:

Thursday, September 26, 2019

  Actual Average (WUND) Record (WUND)
Temperature  
Mean Temperature 64 °F -  
Max Temperature 68 °F - - (-1)
Min Temperature 59 °F - - (-1)
Degree Days  
Heating Degree Days 2    
Growing Degree Days 14 (Base 50)    
Moisture  
Dew Point 58 °F    
Average Humidity 80    
Maximum Humidity 94    
Minimum Humidity 65    
Precipitation  
Precipitation 0.00 in - - ()
Sea Level Pressure  
Sea Level Pressure 29.94 in    
Wind  
Wind Speed 8 mph ()    
Max Wind Speed 13 mph    
Max Gust Speed -    
Visibility 6.2 miles    
Events Rain    
Averages and records for this station are not official NWS values.
T = Trace of Precipitation, MM = Missing Value Source: Averaged Metar Reports

Daily Weather History Graph

Daily Weather History Graph

Search for Another Location

Airport or City:

Astronomy

Sep. 26, 2019 Rise Set
Actual Time 7:20 AM CEST 7:19 PM CEST
Civil Twilight 6:49 AM CEST 7:50 PM CEST
Nautical Twilight 6:12 AM CEST 8:26 PM CEST
Astronomical Twilight 5:34 AM CEST 9:04 PM CEST
Moon 3:45 AM CEST (9/26) 6:39 PM CEST (9/26)
Length of Visible Light 13h 01m
Length of Day
11h 58m
Waning Crescent, 8% of the Moon is Illuminated
Sep 26
Waning Crescent
Sep 28
New
Oct 5
First Quarter
Oct 13
Full
Oct 21
Last Quarter

Hourly Weather History & Observations

Time (CEST) Temp. Dew Point Humidity Pressure Visibility Wind Dir Wind Speed Gust Speed Precip Events Conditions
12:00 AM 60 °F 54 °F 73% 29.88 in 44 mi South 11.2 mph - -   Overcast
3:00 AM 60 °F 54 °F 74% 29.88 in 44 mi SSW 6.7 mph - -   Overcast
4:00 AM 60 °F 54 °F 75% 29.88 in 44 mi SSW 6.7 mph - -   Overcast
6:00 AM 60 °F 54 °F 76% 29.90 in 44 mi SSW 6.7 mph - -   Overcast
7:50 AM 59.0 °F 57.2 °F 94% 29.92 in 6.2 mi South 5.8 mph - N/A   Mostly Cloudy
8:20 AM 59.0 °F 57.2 °F 94% 29.92 in 6.2 mi South 6.9 mph - N/A   Mostly Cloudy
8:50 AM 60.8 °F 57.2 °F 88% 29.92 in 6.2 mi South 6.9 mph - N/A   Mostly Cloudy
9:00 AM 60 °F 57 °F 86% 29.93 in 37 mi South 6.7 mph - - Rain Drizzle
9:20 AM 60.8 °F 57.2 °F 88% 29.92 in 6.2 mi South 8.1 mph - N/A   Mostly Cloudy
9:50 AM 60.8 °F 57.2 °F 88% 29.95 in 6.2 mi South 8.1 mph - N/A   Mostly Cloudy
10:00 AM 62 °F 57 °F 79% 29.94 in 44 mi South 8.9 mph - -   Overcast
10:20 AM 62.6 °F 57.2 °F 82% 29.95 in 6.2 mi South 8.1 mph - N/A   Mostly Cloudy
10:50 AM 62.6 °F 57.2 °F 82% 29.95 in 6.2 mi South 11.5 mph - N/A   Mostly Cloudy
11:20 AM 62.6 °F 57.2 °F 82% 29.95 in 6.2 mi South 11.5 mph - N/A Rain Light Rain
11:50 AM 62.6 °F 59.0 °F 88% 29.95 in 6.2 mi South 10.4 mph - N/A   Mostly Cloudy
12:00 PM 63 °F 58 °F 78% 29.96 in 44 mi SSW 13.4 mph - - Rain Rain
12:20 PM 64.4 °F 59.0 °F 83% 29.98 in 6.2 mi South 11.5 mph - N/A   Mostly Cloudy
12:50 PM 66.2 °F 59.0 °F 78% 29.95 in 6.2 mi South 9.2 mph - N/A   Mostly Cloudy
1:00 PM 66 °F 59 °F 72% 29.96 in 44 mi South 11.2 mph - - Rain Rain
1:20 PM 66.2 °F 59.0 °F 78% 29.95 in 6.2 mi SSW 11.5 mph - N/A Rain Light Rain
1:50 PM 66.2 °F 59.0 °F 78% 29.95 in 6.2 mi SSW 10.4 mph - N/A   Mostly Cloudy
2:20 PM 66.2 °F 59.0 °F 78% 29.95 in 6.2 mi SSW 10.4 mph - N/A   Overcast
2:50 PM 66.2 °F 59.0 °F 78% 29.95 in 6.2 mi SSW 10.4 mph - N/A   Overcast
3:00 PM 67 °F 58 °F 65% 29.95 in 44 mi SSW 11.2 mph - -   Overcast
3:20 PM 66.2 °F 59.0 °F 78% 29.95 in 6.2 mi SSW 10.4 mph - N/A   Overcast
3:50 PM 68.0 °F 59.0 °F 73% 29.95 in 6.2 mi SSW 10.4 mph - N/A   Overcast
4:20 PM 68.0 °F 59.0 °F 73% 29.95 in 6.2 mi SSW 10.4 mph - N/A   Overcast
4:50 PM 68.0 °F 59.0 °F 73% 29.95 in 6.2 mi South 8.1 mph - N/A   Overcast
5:20 PM 66.2 °F 59.0 °F 78% 29.95 in 6.2 mi South 8.1 mph - N/A   Overcast
5:50 PM 66.2 °F 59.0 °F 78% 29.95 in 6.2 mi SSW 9.2 mph - N/A   Overcast
6:00 PM 66 °F 58 °F 69% 29.95 in 44 mi SSW 8.9 mph - - Rain Drizzle
6:20 PM 66.2 °F 59.0 °F 78% 29.95 in 6.2 mi South 10.4 mph - N/A   Overcast
6:50 PM 66.2 °F 59.0 °F 78% 29.95 in 6.2 mi South 10.4 mph - N/A   Overcast
7:20 PM 66.2 °F 57.2 °F 73% 29.95 in 6.2 mi SSW 10.4 mph - N/A   Overcast
7:50 PM 62.6 °F 60.8 °F 94% 29.98 in 6.2 mi WNW 6.9 mph - N/A   Mostly Cloudy
9:00 PM 62 °F 60 °F 89% 29.99 in 6 mi WSW 4.5 mph - - Rain Drizzle
10:00 PM 64 °F 57 °F 73% 29.99 in 28 mi SSW 6.7 mph - - Rain Drizzle